RADUGA 5 [-]

Last updated on Oct. 27, 2020, 5:53 a.m. UTC

1 11343U 79035A   20300.56878624 -.00000177  00000-0  00000-0 0  9993
2 11343  10.2677 306.5752 0004181 137.9141 237.1748  1.00252585108701
UTC
Height (km)
Latitude
Longitude
Inclination
Orbital Period
UTC large
Height (km)
Speed (km/s)
/
Latitude / Longitude
Inclination (degrees)
Orbital Period (minutes)
Azimuth
Elevation
Range (km)
Doppler Factor
iOS Compass Heading
iOS Angle

Next 30 passes for location: Hong Kong

Rise time Rise Azimuth (degrees) Set time Set Azimuth (degrees) Duration Max altitude (degrees)

No matching passes for this satellites